This is the latest recevied weather packets stored in our database for station/object N4NVD-13. If no packets are shown the sender has not sent any weather packets the latest 1 day(s).
| Time | Temp. | Humidity | Pressure | Rain* | Wind** | Luminosity | Snow |
|---|---|---|---|---|---|---|---|
| 1778015875 | 28.89° C | 82% | 1005 hPa | 0 mm | 2.24 m/s, 205° | 511 W/m² | - |
| 1778015573 | 28.89° C | 82% | 1005.3 hPa | 0 mm | 3.58 m/s, 217° | 239 W/m² | - |
| 1778015269 | 28.89° C | 81% | 1005.5 hPa | 0 mm | 2.24 m/s, 144° | 378 W/m² | - |
| 1778014966 | 28.89° C | 81% | 1005.9 hPa | 0 mm | 2.68 m/s, 204° | 450 W/m² | - |
| 1778014663 | 28.89° C | 81% | 1005.8 hPa | 0 mm | 2.68 m/s, 225° | 561 W/m² | - |
| 1778014362 | 29.44° C | 81% | 1005.9 hPa | 0 mm | 0.89 m/s, 148° | 262 W/m² | - |
| 1778014058 | 29.44° C | 80% | 1006 hPa | 0 mm | 0 m/s | 297 W/m² | - |
| 1778013756 | 28.89° C | 80% | 1005.9 hPa | 0 mm | 1.34 m/s, 227° | 608 W/m² | - |
| 1778013453 | 28.89° C | 80% | 1006.1 hPa | 0 mm | 2.24 m/s, 200° | 314 W/m² | - |
| 1778013150 | 28.33° C | 81% | 1006.2 hPa | 0 mm | 4.02 m/s, 222° | 449 W/m² | - |
| 1778012845 | 28.89° C | 81% | 1006.1 hPa | 0 mm | 3.58 m/s, 210° | 323 W/m² | - |
| 1778012542 | 29.44° C | 82% | 1006.2 hPa | 0 mm | 2.24 m/s, 218° | 680 W/m² | - |
| 1778012238 | 28.89° C | 81% | 1006.4 hPa | 0 mm | 4.47 m/s, 210° | 247 W/m² | - |
| 1778011936 | 28.33° C | 82% | 1006.2 hPa | 0 mm | 2.24 m/s, 157° | 388 W/m² | - |
| 1778011634 | 28.33° C | 81% | 1006.4 hPa | 0 mm | 0.89 m/s, 233° | 265 W/m² | - |
| 1778011331 | 28.33° C | 81% | 1006.5 hPa | 0 mm | 2.24 m/s, 225° | 494 W/m² | - |
| 1778011026 | 28.33° C | 82% | 1006.6 hPa | 0 mm | 2.24 m/s, 231° | 237 W/m² | - |
| 1778010724 | 28.33° C | 82% | 1006.7 hPa | 0 mm | 4.92 m/s, 226° | 609 W/m² | - |
| 1778010421 | 28.33° C | 82% | 1006.6 hPa | 0 mm | 2.68 m/s, 233° | 283 W/m² | - |
| 1778010117 | 28.33° C | 82% | 1006.7 hPa | 0 mm | 3.13 m/s, 207° | 453 W/m² | - |
| 1778009814 | 28.33° C | 83% | 1006.9 hPa | 0 mm | 1.34 m/s, 229° | 369 W/m² | - |
| 1778009511 | 28.33° C | 84% | 1006.9 hPa | 0 mm | 4.02 m/s, 226° | 395 W/m² | - |
| 1778009209 | 27.78° C | 83% | 1006.9 hPa | 0 mm | 1.79 m/s, 208° | 438 W/m² | - |
| 1778008907 | 27.78° C | 84% | 1006.8 hPa | 0 mm | 2.24 m/s, 223° | 267 W/m² | - |
| 1778008605 | 28.89° C | 82% | 1007 hPa | 0 mm | 1.79 m/s, 213° | 510 W/m² | - |
* Rain latest hour (hover to see other rain measurements)
** Current wind speed in m/s (hover to see current wind gust speed)